K9MWM-1 Weather Reports


Display with metric or nautical units.
time (UTC)temp
F
wind
direction
speed
MPH
gust
MPH
rain 1hr
in
rain 24hr
in
rain mn
in
humidity
%
barometer
mb
20260905150256 66 189 0.0 0.0 0.00 0.00 0.00
20260905144206 61 136 0.0 0.0 0.00 0.00 0.00
20260905143141 59 145 0.0 0.0 0.00 0.00 0.00
20260905142627 58 133 0.0 0.0 0.00 0.00 0.00
20260905142114 58 144 0.0 0.0 0.00 0.00 0.00
20260905141049 58 286 0.0 0.0 0.00 0.00 0.00
20260905135510 54 315 0.0 0.0 0.00 0.00 0.00
20260905133932 52 0 0.0 0.0 0.00 0.00 0.00
20260905132905 51 92 0.0 0.0 0.00 0.00 0.00
20260905132352 51 315 0.0 0.0 0.00 0.00 0.00
20260905131840 51 337 0.0 0.0 0.00 0.00 0.00
20260905130302 51 337 0.0 0.0 0.00 0.00 0.00
20260905125749 52 337 0.0 0.0 0.00 0.00 0.00
20260905124725 52 99 0.0 0.0 0.00 0.00 0.00
20260905124210 53 67 0.0 0.0 0.00 0.00 0.00
20260905123657 53 337 0.0 0.0 0.00 0.00 0.00
20260905123145 53 337 0.0 0.0 0.00 0.00 0.00
20260905122632 54 337 0.0 0.0 0.00 0.00 0.00
20260905122119 53 123 0.0 0.0 0.00 0.00 0.00
20260905121053 53 337 0.0 0.0 0.00 0.00 0.00
20260905120541 53 337 0.0 0.0 0.00 0.00 0.00
20260905120027 53 337 0.0 0.0 0.00 0.00 0.00
20260905115002 54 337 0.0 0.0 0.00 0.00 0.00
20260905114449 54 337 0.0 0.0 0.00 0.00 0.00
20260905113936 54 0 0.0 0.0 0.00 0.00 0.00
20260905113423 54 225 0.0 0.0 0.00 0.00 0.00
20260905112357 54 337 0.0 0.0 0.00 0.00 0.00
20260905111845 55 137 0.0 0.0 0.00 0.00 0.00
20260905111332 55 135 0.0 0.0 0.00 0.00 0.00
20260905110820 55 104 0.0 0.0 0.00 0.00 0.00
20260905105753 55 337 0.0 0.0 0.00 0.00 0.00
20260905105240 55 337 0.0 0.0 0.00 0.00 0.00
20260905104728 55 292 0.0 0.0 0.00 0.00 0.00
20260905104215 55 107 0.0 0.0 0.00 0.00 0.00
20260905103702 55 337 0.0 0.0 0.00 0.00 0.00
20260905103149 56 337 0.0 0.0 0.00 0.00 0.00
20260905102636 56 337 0.0 0.0 0.00 0.00 0.00
20260905102123 57 0 0.0 0.0 0.00 0.00 0.00
20260905101610 57 337 0.0 0.0 0.00 0.00 0.00
20260905101057 57 90 0.0 0.0 0.00 0.00 0.00
20260905100033 58 337 0.0 0.0 0.00 0.00 0.00
20260905095520 58 337 0.0 0.0 0.00 0.00 0.00
20260905094453 58 90 0.0 0.0 0.00 0.00 0.00
20260905093429 57 337 0.0 0.0 0.00 0.00 0.00
20260905091849 55 236 0.0 0.0 0.00 0.00 0.00
20260905085758 55 337 0.0 0.0 0.00 0.00 0.00
20260905084219 54 46 0.0 0.0 0.00 0.00 0.00
20260905082641 55 337 0.0 0.0 0.00 0.00 0.00
20260905082128 55 337 0.0 0.0 0.00 0.00 0.00
20260905081615 55 337 0.0 0.0 0.00 0.00 0.00
20260905081104 56 337 0.0 0.0 0.00 0.00 0.00
20260905080037 56 337 0.0 0.0 0.00 0.00 0.00
20260905075525 56 337 0.0 0.0 0.00 0.00 0.00
20260905073432 56 337 0.0 0.0 0.00 0.00 0.00
20260905072920 56 82 0.0 0.0 0.00 0.00 0.00
20260905071341 56 337 0.0 0.0 0.00 0.00 0.00
20260905070315 56 337 0.0 0.0 0.00 0.00 0.00
20260905064737 58 337 0.0 0.0 0.00 0.00 0.00
20260905063711 58 270 0.0 0.0 0.00 0.00 0.00
20260905063158 58 337 0.0 0.0 0.00 0.00 0.00
20260905062646 58 337 0.0 0.0 0.00 0.00 0.00
20260905061620 59 358 0.0 0.0 0.00 0.00 0.00
20260905061107 60 337 0.0 0.0 0.00 0.00 0.00
20260905055528 60 337 0.0 0.0 0.00 0.00 0.00
20260905055016 60 337 0.0 0.0 0.00 0.00 0.00
20260905053437 60 247 0.0 0.0 0.00 0.00 0.00
20260905052924 60 337 0.0 0.0 0.00 0.00 0.00
20260905051900 61 337 0.0 0.0 0.00 0.00 0.00
20260905050320 62 337 0.0 0.0 0.00 0.00 0.00
20260905045807 62 67 0.0 0.0 0.00 0.00 0.00
20260905045254 62 168 0.0 0.0 0.00 0.00 0.00
20260905044742 62 337 0.0 0.0 0.00 0.00 0.00
20260905044230 62 337 0.0 0.0 0.00 0.00 0.00
20260905043205 63 337 0.0 0.0 0.00 0.00 0.00
20260905042650 63 337 0.0 0.0 0.00 0.00 0.00
20260905042138 64 337 0.0 0.0 0.00 0.00 0.00
20260905041625 64 337 0.0 0.0 0.00 0.00 0.00
20260905041112 65 337 0.0 0.0 0.00 0.00 0.00
20260905040559 65 337 0.0 0.0 0.00 0.00 0.00
20260905035533 66 0 0.0 0.0 0.00 0.00 0.00
20260905035020 66 256 0.0 0.0 0.00 0.00 0.00
20260905034508 66 337 0.0 0.0 0.00 0.00 0.00
20260905033955 67 337 0.0 0.0 0.00 0.00 0.00
20260905032929 67 322 0.0 0.0 0.00 0.00 0.00
20260905032416 67 298 0.0 0.0 0.00 0.00 0.00
20260905031903 67 33 0.0 0.0 0.00 0.00 0.00
20260905030838 67 73 0.0 0.0 0.00 0.00 0.00
20260905030326 67 33 0.0 0.0 0.00 0.00 0.00
20260905025812 67 315 0.0 0.0 0.00 0.00 0.00
20260905025300 67 183 0.0 0.0 0.00 0.00 0.00
20260905024747 68 33 0.0 0.0 0.00 0.00 0.00
20260905024234 68 225 0.0 0.0 0.00 0.00 0.00
20260905023722 68 90 0.0 0.0 0.00 0.00 0.00
20260905015538 72 78 0.0 0.0 0.00 0.00 0.00
20260905015025 73 270 0.0 0.0 0.00 0.00 0.00
20260905014513 74 337 0.0 0.0 0.00 0.00 0.00
20260905014000 76 60 0.0 0.0 0.00 0.00 0.00
20260905012935 79 315 0.0 0.0 0.00 0.00 0.00
20260905012421 82 322 0.0 0.0 0.00 0.00 0.00
20260905010843 87 294 0.0 0.0 0.00 0.00 0.00
20260905010333 88 294 0.0 0.0 0.00 0.00 0.00
20260905005817 89 292 0.0 0.0 0.00 0.00 0.00
20260905005306 90 296 0.0 0.0 0.00 0.00 0.00
20260905004752 90 294 0.0 0.0 0.00 0.00 0.00
20260905004238 90 296 0.0 0.0 0.00 0.00 0.00
20260905002700 92 297 0.0 0.0 0.00 0.00 0.00
20260905002147 93 294 0.0 0.0 0.00 0.00 0.00
20260905001634 93 292 0.0 0.0 0.00 0.00 0.00
20260905001121 93 286 0.0 0.0 0.00 0.00 0.00
20260905000609 93 304 0.0 0.0 0.00 0.00 0.00
20260905000056 92 294 0.0 0.0 0.00 0.00 0.00
20260904235542 93 294 0.0 0.0 0.00 0.00 0.00
20260904234517 93 292 0.0 0.0 0.00 0.00 0.00
20260904234005 93 292 0.0 0.0 0.00 0.00 0.00
20260904232938 89 299 0.0 0.0 0.00 0.00 0.00
20260904232426 88 297 0.0 0.0 0.00 0.00 0.00
20260904231400 93 173 0.0 0.0 0.00 0.00 0.00
20260904230847 93 287 0.0 0.0 0.00 0.00 0.00
20260904230335 94 288 0.0 0.0 0.00 0.00 0.00
20260904225822 94 295 0.0 0.0 0.00 0.00 0.00
20260904225308 92 295 0.0 0.0 0.00 0.00 0.00
20260904224756 89 307 0.0 0.0 0.00 0.00 0.00
20260904224243 86 294 0.0 0.0 0.00 0.00 0.00
20260904223730 86 297 0.0 0.0 0.00 0.00 0.00
20260904222152 88 302 0.0 0.0 0.00 0.00 0.00
20260904221127 90 296 0.0 0.0 0.00 0.00 0.00
20260904220613 90 293 0.0 0.0 0.00 0.00 0.00
20260904220100 91 292 0.0 0.0 0.00 0.00 0.00
20260904215548 90 295 0.0 0.0 0.00 0.00 0.00
20260904214523 85 293 0.0 0.0 0.00 0.00 0.00
20260904214009 85 295 0.0 0.0 0.00 0.00 0.00
20260904213456 85 294 0.0 0.0 0.00 0.00 0.00
20260904212943 85 296 0.0 0.0 0.00 0.00 0.00
20260904212432 85 292 0.0 0.0 0.00 0.00 0.00
20260904211919 85 150 0.0 0.0 0.00 0.00 0.00
20260904211405 85 129 0.0 0.0 0.00 0.00 0.00
20260904210852 85 292 0.0 0.0 0.00 0.00 0.00
20260904210339 86 294 0.0 0.0 0.00 0.00 0.00
20260904205827 86 296 0.0 0.0 0.00 0.00 0.00
20260904204801 85 306 0.0 0.0 0.00 0.00 0.00
20260904204248 85 324 0.0 0.0 0.00 0.00 0.00
20260904203735 85 299 0.0 0.0 0.00 0.00 0.00
20260904203223 85 294 0.0 0.0 0.00 0.00 0.00
20260904202710 86 292 0.0 0.0 0.00 0.00 0.00
20260904201644 88 307 0.0 0.0 0.00 0.00 0.00
20260904201131 88 301 0.0 0.0 0.00 0.00 0.00
20260904200618 88 299 0.0 0.0 0.00 0.00 0.00
20260904195039 88 285 0.0 0.0 0.00 0.00 0.00
20260904194527 88 295 0.0 0.0 0.00 0.00 0.00
20260904194013 88 293 0.0 0.0 0.00 0.00 0.00
20260904193501 88 292 0.0 0.0 0.00 0.00 0.00
20260904192949 88 322 0.0 0.0 0.00 0.00 0.00
20260904191922 86 295 0.0 0.0 0.00 0.00 0.00
20260904191411 84 296 0.0 0.0 0.00 0.00 0.00
20260904190857 84 292 0.0 0.0 0.00 0.00 0.00
20260904190345 85 296 0.0 0.0 0.00 0.00 0.00
20260904185831 85 299 0.0 0.0 0.00 0.00 0.00
20260904185319 85 299 0.0 0.0 0.00 0.00 0.00
20260904183739 87 300 0.0 0.0 0.00 0.00 0.00
20260904183227 87 292 0.0 0.0 0.00 0.00 0.00
20260904182715 86 292 0.0 0.0 0.00 0.00 0.00
20260904182202 86 286 0.0 0.0 0.00 0.00 0.00
20260904181649 86 292 0.0 0.0 0.00 0.00 0.00
20260904181136 85 292 0.0 0.0 0.00 0.00 0.00
20260904180623 83 294 0.0 0.0 0.00 0.00 0.00
20260904180111 82 258 0.0 0.0 0.00 0.00 0.00
20260904175045 80 356 0.0 0.0 0.00 0.00 0.00
20260904174534 79 315 0.0 0.0 0.00 0.00 0.00
20260904173506 77 327 0.0 0.0 0.00 0.00 0.00
20260904172440 75 321 0.0 0.0 0.00 0.00 0.00
20260904171928 75 202 0.0 0.0 0.00 0.00 0.00
20260904170349 75 329 0.0 0.0 0.00 0.00 0.00
20260904165837 76 159 0.0 0.0 0.00 0.00 0.00
20260904165323 76 315 0.0 0.0 0.00 0.00 0.00
20260904164811 76 336 0.0 0.0 0.00 0.00 0.00
20260904164259 77 347 0.0 0.0 0.00 0.00 0.00
20260904163745 79 317 0.0 0.0 0.00 0.00 0.00
20260904163232 81 315 0.0 0.0 0.00 0.00 0.00
20260904162718 82 331 0.0 0.0 0.00 0.00 0.00
20260904162206 81 337 0.0 0.0 0.00 0.00 0.00
20260904161653 80 315 0.0 0.0 0.00 0.00 0.00
20260904160627 76 311 0.0 0.0 0.00 0.00 0.00
20260904160114 76 313 0.0 0.0 0.00 0.00 0.00
20260904155602 73 342 0.0 0.0 0.00 0.00 0.00
20260904155049 71 309 0.0 0.0 0.00 0.00 0.00
20260904151419 59 337 0.0 0.0 0.00 0.00 0.00